Location: Azul
(36.7830°S, 59.8500°W)
Time: 10:41:40
(UTC-03:00)

ESTCUBE 1 - Visible Passes

Search period start: 22 October 2021 00:00
Search period end: 01 November 2021 00:00
Orbit: 645 x 660 km, 97.9° (Epoch: 22 October)

Date Brightness Start Highest point End Pass type
(mag) Time Alt. Az. Time Alt. Az. Time Alt. Az.
23 Oct ? 00:43:58 10° S 00:44:03 10° S 00:44:03 10° S visible
25 Oct ? 00:01:46 10° SSE 00:01:51 10° SSE 00:01:51 10° SSE visible
26 Oct ? 00:29:16 10° S 00:29:40 12° S 00:29:40 12° S visible
27 Oct ? 00:57:09 10° SSW 00:57:29 12° SSW 00:57:29 12° SSW visible
27 Oct ? 23:47:22 10° SSE 23:47:26 10° SSE 23:47:26 10° SSE visible
29 Oct ? 00:14:39 10° S 00:15:15 14° S 00:15:15 14° S visible
30 Oct ? 00:42:19 10° S 00:43:04 14° S 00:43:04 14° S visible
31 Oct ? 01:10:26 10° SSW 01:10:53 12° SSW 01:10:53 12° SSW visible
